Location: Wavehorne
(51.0500°N, 0.8333°E)
Time: 00:35:20
(UTC+00:00)

FALCON 9 DEB - Pass Details

Date: 20 June 2021
Orbit: 422 x 432 km, 53.0° (Epoch: 25 July)

Event Time Altitude Azimuth Distance (km) Brightness Sun altitude
Rises 01:29:07 0° 289° (WNW) 2,394 6.9 -12.9°
Reaches altitude 10° 01:31:16 10° 284° (WNW) 1,523 5.8 -12.7°
Maximum altitude 01:34:35 49° 209° (SSW) 561 3.2 -12.5°
Drops below altitude 10° 01:37:52 10° 133° (SE) 1,510 5.7 -12.3°
Sets 01:39:59 0° 128° (SE) 2,371 6.7 -12.2°
